[[{"header":{"parameterUnit":"m.s-1","parameterCategory":1,"la1":30.2991,"la2":30.254,"lo1":-89.0895,"lo2":-89.0444,"dy":0.0017,"dx":0.0017,"nx":28,"ny":28,"refTime":"2025-04-23T21:00:00:Z","depth":0,"parameterNumber":2,"parameterNumberName":"U-component_of_WINDS"},"data":[0,0,0,0,0,0,0,0,0,0,0,0,0,0,0,0,0,0,0,0,0,0,0,0,0,0,0,0,0,0,0,0,0,0,0,0,0,0,0,0,0,0,0,0,0,0,0,0,0,0,0,0,0,0,0,0,0,0,-3.6569,-3.657,0,-3.6608,-3.6608,-3.6609,-3.6551,-3.6549,-3.6547,-3.6545,-3.6584,-3.6587,-3.6589,0,0,0,0,0,0,0,0,0,0,0,0,0,-3.6445,-3.6447,-3.6569,-3.657,-3.657,-3.6608,-3.6609,-3.6609,-3.6552,-3.6549,-3.6547,-3.6544,-3.6583,-3.6586,-3.659,0,0,0,0,0,0,0,0,0,0,0,0,0,-3.6493,-3.6448,-3.6569,-3.6546,-3.6545,-3.6608,-3.6609,-3.6609,-3.6552,-3.6549,-3.6546,-3.6543,-3.6582,-3.6586,-3.659,-3.6677,0,0,-3.6603,-3.6605,0,0,0,0,0,0,0,0,-3.649,-3.6497,-3.6549,-3.6548,-3.6546,-3.6572,-3.6579,-3.6632,-3.6553,-3.6549,-3.6545,-3.6542,-3.6582,-3.6586,-3.66,-3.6679,-3.6681,-3.6604,-3.6606,-3.6608,-3.661,0,0,0,0,0,0,0,-3.6487,-3.6495,-3.6585,-3.655,-3.6548,-3.6534,-3.6537,-3.6588,-3.6582,-3.6549,-3.6545,-3.6551,-3.6581,-3.6596,-3.6601,-3.6681,-3.6604,-3.6608,-3.661,-3.6612,-3.6833,-3.6836,0,0,0,0,0,0,-3.6486,-3.6493,-3.6583,-3.6586,-3.651,-3.6538,-3.6542,-3.6567,-3.6581,-3.6581,-3.6553,-3.6548,-3.659,-3.6596,-3.6602,-3.6704,-3.6608,-3.6612,-3.6615,-3.683,-3.6834,-3.6838,0,0,0,0,0,0,-3.6484,-3.6495,-3.6582,-3.6538,-3.6548,-3.6544,-3.6572,-3.6569,-3.6584,-3.6584,-3.6583,-3.657,-3.6588,-3.6596,-3.6659,-3.6704,-3.6614,-3.6618,-3.6826,-3.6831,-3.6836,-3.6909,0,0,0,0,0,0,-3.6481,-3.6494,-3.6528,-3.6539,-3.6551,-3.6639,-3.6574,-3.6572,-3.6592,-3.6585,-3.66,-3.6599,-3.6586,-3.6653,-3.6663,-3.6708,-3.6622,-3.6822,-3.6828,-3.6834,-3.6902,-3.6916,-3.6927,0,0,0,0,0,-3.6476,-3.6547,-3.653,-3.6541,-3.6592,-3.6642,-3.6648,-3.6632,-3.6596,-3.6629,-3.6629,-3.6599,-3.6698,-3.666,-3.6671,-3.6718,-3.6819,-3.6827,-3.6834,-3.6897,-3.6913,-3.6927,0,0,0,0,0,0,-3.654,-3.6548,-3.6529,-3.6605,-3.6623,-3.6632,-3.6673,-3.665,-3.6678,-3.667,-3.6649,-3.6653,-3.672,-3.6726,-3.6683,-3.6803,-3.6752,-3.6763,-3.6797,-3.6812,-3.6824,-3.682,-3.6625,0,0,0,0,0,-3.6563,-3.6602,-3.6607,-3.6674,-3.6684,-3.6677,-3.6698,-3.6684,-3.6702,-3.6709,-3.6714,-3.6732,-3.6766,-3.679,-3.6822,-3.6904,-3.6905,-3.6942,-3.6954,-3.6965,-3.6973,-3.7015,-3.7031,-3.6862,-3.6862,-3.6862,0,0,-3.661,-3.662,-3.6646,-3.6687,-3.6699,-3.674,-3.6684,-3.673,-3.676,-3.6716,-3.6775,-3.678,-3.6798,-3.6871,-3.6903,-3.6878,-3.702,-3.6974,-3.6982,-3.6985,-3.7024,-3.704,-3.7055,-3.6867,-3.6866,-3.6865,0,0,-3.6717,-3.6729,-3.6785,-3.6799,-3.6819,-3.6814,-3.6828,-3.684,-3.6841,-3.6901,-3.6869,-3.6904,-3.6966,-3.698,-3.6995,-3.7109,-3.7081,-3.712,-3.7184,-3.7225,-3.7239,-3.725,-3.7289,-3.7304,-3.7129,-3.7129,-3.7129,0,-3.6773,-3.6834,-3.6817,-3.6865,-3.6884,-3.6847,-3.6904,-3.6918,-3.6947,-3.6961,-3.6932,-3.7008,-3.7018,-3.7093,-3.7121,-3.7135,-3.7149,-3.7117,-3.7238,-3.725,-3.726,-3.7297,-3.7312,-3.7133,-3.7133,-3.7133,-3.7132,0,-3.6902,-3.6945,-3.6988,-3.7017,-3.7041,-3.7093,-3.7084,-3.711,-3.7095,-3.7093,-3.7154,-3.7165,-3.7199,-3.7216,-3.7201,-3.7289,-3.7272,-3.7242,-3.719,-3.7281,-3.7315,-3.733,-3.714,-3.7138,-3.7137,-3.7136,0,0,-3.7048,-3.7068,-3.7084,-3.7096,-3.7116,-3.7148,-3.7199,-3.7232,-3.7254,-3.7276,-3.7317,-3.7371,-3.7342,-3.736,-3.7347,-3.7384,-3.7471,-3.7348,-3.7348,-3.7369,-3.7567,-3.7588,-3.7605,-3.7455,-3.7457,-3.7459,-3.7565,0,-3.7153,-3.724,-3.7227,-3.7311,-3.7349,-3.7316,-3.736,-3.7376,-3.7376,-3.7409,-3.7409,-3.7446,-3.7407,-3.7417,-3.7453,-3.7453,-3.751,-3.7446,-3.7491,-3.7493,-3.7485,-3.7623,-3.7645,-3.7744,-3.7578,-3.758,-3.7582,0,-3.7287,-3.7314,-3.7402,-3.7415,-3.743,-3.747,-3.7499,-3.7532,-3.755,-3.7547,-3.7567,-3.7548,-3.7598,-3.7547,-3.7615,-3.7572,-3.759,-3.7593,-3.7597,-3.7598,-3.7541,-3.7626,-3.7775,-3.7789,-3.7603,-3.7602,-3.76,0,-3.7382,-3.744,-3.75,-3.7512,-3.753,-3.7558,-3.7567,-3.7582,-3.7603,-3.7629,-3.7642,-3.7674,-3.769,-3.7715,-3.7704,-3.7669,-3.7774,-3.7723,-3.7772,-3.7773,-3.7794,-3.7792,-3.7946,-3.781,-3.781,-3.7809,-3.7809,0,-3.7499,-3.7554,-3.7543,-3.758,-3.764,-3.7625,-3.7684,-3.7689,-3.7703,-3.7739,-3.7713,-3.7748,-3.7733,-3.7767,-3.7759,-3.7816,-3.7824,-3.7823,-3.7819,-3.7824,-3.7823,-3.7833,-3.7825,-3.7813,-3.7812,-3.7812,-3.7811,0,-3.7614,-3.761,-3.7672,-3.7684,-3.7688,-3.7732,-3.7742,-3.7776,-3.7775,-3.7821,-3.7831,-3.7829,-3.7867,-3.786,-3.7902,-3.7897,-3.7968,-3.7957,-3.7961,-3.7958,-3.8007,-3.8002,-3.817,-3.8191,-3.8044,-3.8045,-3.8046,0,-3.7688,-3.773,-3.7746,-3.7769,-3.7779,-3.7817,-3.7838,-3.7825,-3.7848,-3.7872,-3.7903,-3.794,-3.7967,-3.8031,-3.8032,-3.8065,-3.8053,-3.811,-3.8058,-3.806,-3.8052,-3.8048,-3.8052,-3.812,-3.8121,-3.8123,-3.8124,0,-3.782,-3.7815,-3.7847,-3.7879,-3.7905,-3.7929,-3.795,-3.797,-3.7959,-3.7987,-3.8026,-3.8048,-3.8091,-3.8127,-3.8157,-3.8165,-3.8143,-3.8141,-3.8154,-3.8157,-3.8157,-3.8155,-3.7987,-3.8136,-3.8135,-3.8134,-3.8134,-3.8133,-3.7915,-3.795,-3.7967,-3.8003,-3.8018,-3.8039,-3.8071,-3.8074,-3.8107,-3.8141,-3.8132,-3.8176,-3.8193,-3.8231,-3.8243,-3.8277,-3.8256,-3.8275,-3.8279,-3.8283,-3.8288,-3.8154,-3.8283,-3.8283,-3.8282,-3.8282,-3.8282,0,-3.8043,-3.8053,-3.8086,-3.8117,-3.8146,-3.8123,-3.8146,-3.8171,-3.821,-3.8228,-3.8257,-3.8302,-3.8337,-3.8342,-3.8375,-3.8401,-3.8391,-3.841,-3.8406,-3.8409,-3.8307,-3.8291,-3.8417,-3.8417,-3.8417,-3.8417,-3.8417,-3.8417,-3.8113,-3.817,-3.8168,-3.8232,-3.8241,-3.8284,-3.8299,-3.8318,-3.8332,-3.8383,-3.8412,-3.8416,-3.8429,-3.8463,-3.8494,-3.8494,-3.8507,-3.8529,-3.8525,-3.8429,-3.8416,-3.8403,-3.8388,-3.8532,-3.8533,-3.8624,-3.8625,-3.8626]},{"header":{"parameterUnit":"m.s-1","parameterCategory":1,"la1":30.2991,"la2":30.254,"lo1":-89.0895,"lo2":-89.0444,"dy":0.0017,"dx":0.0017,"nx":28,"ny":28,"refTime":"2025-04-23T21:00:00:Z","depth":0,"parameterNumber":3,"parameterNumberName":"V-component_of_WINDS"},"data":[0,0,0,0,0,0,0,0,0,0,0,0,0,0,0,0,0,0,0,0,0,0,0,0,0,0,0,0,0,0,0,0,0,0,0,0,0,0,0,0,0,0,0,0,0,0,0,0,0,0,0,0,0,0,0,0,0,0,1.2967,1.2967,0,1.2958,1.2958,1.2958,1.293,1.293,1.2929,1.2928,1.292,1.2921,1.2921,0,0,0,0,0,0,0,0,0,0,0,0,0,1.2961,1.2962,1.2967,1.2967,1.2967,1.2958,1.2958,1.2958,1.293,1.2929,1.2929,1.2928,1.292,1.2921,1.2921,0,0,0,0,0,0,0,0,0,0,0,0,0,1.2959,1.2962,1.2967,1.2952,1.2951,1.2958,1.2958,1.2958,1.293,1.2929,1.2929,1.2928,1.292,1.292,1.2921,1.2943,0,0,1.2923,1.2923,0,0,0,0,0,0,0,0,1.296,1.296,1.2954,1.2953,1.2951,1.2944,1.2953,1.2953,1.2931,1.2938,1.2928,1.2927,1.2929,1.2929,1.2929,1.2942,1.2942,1.2923,1.2923,1.2923,1.2923,0,0,0,0,0,0,0,1.296,1.296,1.2964,1.2954,1.2953,1.2946,1.2945,1.2953,1.2939,1.2937,1.2935,1.2935,1.2928,1.2929,1.2929,1.2942,1.2923,1.2923,1.2923,1.2924,1.2973,1.2974,0,0,0,0,0,0,1.2962,1.296,1.2964,1.2963,1.2953,1.2947,1.2945,1.2948,1.2939,1.2936,1.2935,1.2933,1.2928,1.2928,1.2928,1.2954,1.2923,1.2924,1.2924,1.2972,1.2973,1.2974,0,0,0,0,0,0,1.2962,1.2962,1.2964,1.2961,1.2961,1.2948,1.2951,1.2948,1.2948,1.2937,1.2935,1.2939,1.2927,1.2928,1.2939,1.2953,1.2924,1.2924,1.2971,1.2973,1.2974,1.3004,0,0,0,0,0,0,1.2962,1.2963,1.2971,1.2962,1.2961,1.2975,1.2951,1.2948,1.2949,1.2947,1.2939,1.2937,1.2927,1.2939,1.294,1.2953,1.2925,1.297,1.2972,1.2973,1.3002,1.3007,1.3011,0,0,0,0,0,1.2962,1.298,1.2971,1.2972,1.2971,1.2976,1.2976,1.2963,1.295,1.2959,1.2951,1.2938,1.2951,1.294,1.2941,1.2955,1.2969,1.2971,1.2973,1.3,1.3006,1.3011,0,0,0,0,0,0,1.2991,1.2978,1.2969,1.2984,1.2981,1.2971,1.2981,1.2969,1.297,1.2968,1.2952,1.2951,1.2965,1.2961,1.2949,1.2976,1.2958,1.296,1.2978,1.2983,1.2987,1.2988,1.2925,0,0,0,0,0,1.2999,1.3004,1.2993,1.3007,1.3006,1.2994,1.2996,1.2986,1.2983,1.2982,1.2975,1.2973,1.2977,1.298,1.2982,1.3001,1.3,1.3011,1.3016,1.3019,1.3022,1.3032,1.3037,1.2982,1.2982,1.2982,0,0,1.3016,1.301,1.3014,1.3013,1.301,1.3016,1.2993,1.3001,1.3005,1.2983,1.2994,1.2989,1.2985,1.3001,1.3008,1.2998,1.3037,1.3022,1.3025,1.3026,1.3035,1.304,1.3045,1.2983,1.2983,1.2983,0,0,1.305,1.3046,1.3058,1.3055,1.305,1.3042,1.3045,1.3036,1.3032,1.3043,1.3027,1.3032,1.3039,1.3037,1.3037,1.3071,1.3058,1.3072,1.3095,1.3105,1.3109,1.3113,1.3126,1.313,1.3074,1.3074,1.3075,0,1.3072,1.308,1.3065,1.3074,1.3074,1.3054,1.3066,1.3064,1.3061,1.3062,1.3051,1.306,1.3056,1.3071,1.3079,1.308,1.3083,1.3073,1.311,1.3113,1.3117,1.3128,1.3133,1.3076,1.3076,1.3076,1.3076,0,1.3107,1.3113,1.3124,1.3121,1.3122,1.3133,1.312,1.3123,1.3113,1.3106,1.3118,1.3112,1.3114,1.3116,1.3107,1.3131,1.3125,1.3112,1.3094,1.3124,1.3135,1.3139,1.3079,1.3078,1.3078,1.3077,0,0,1.316,1.3149,1.3153,1.3151,1.3145,1.3149,1.3159,1.316,1.3164,1.3162,1.317,1.3176,1.3164,1.3164,1.3155,1.3163,1.3191,1.315,1.3149,1.3158,1.3218,1.3228,1.3233,1.3183,1.3184,1.3184,1.3218,0,1.3193,1.3208,1.3195,1.3214,1.3219,1.32,1.3209,1.3206,1.3199,1.3204,1.3196,1.3201,1.3185,1.3185,1.3193,1.3186,1.3203,1.3184,1.3191,1.3191,1.3193,1.3239,1.325,1.3282,1.3222,1.3223,1.3224,0,1.3233,1.3233,1.3252,1.3245,1.3246,1.3254,1.3255,1.3258,1.3255,1.325,1.325,1.3238,1.3247,1.3229,1.3242,1.3229,1.3231,1.3228,1.3229,1.323,1.321,1.3242,1.3292,1.3297,1.323,1.323,1.3229,0,1.3271,1.3276,1.3287,1.3287,1.3278,1.3284,1.3281,1.3276,1.3278,1.3278,1.3279,1.3281,1.3282,1.3284,1.3272,1.326,1.3287,1.3268,1.3284,1.3284,1.3291,1.3291,1.3343,1.3291,1.3291,1.3291,1.3291,0,1.3309,1.3322,1.3304,1.3312,1.3325,1.331,1.3324,1.3319,1.3315,1.3321,1.3305,1.3311,1.3296,1.3301,1.3292,1.3304,1.3305,1.3301,1.3299,1.3303,1.3304,1.3305,1.3303,1.3292,1.3292,1.3292,1.3292,0,1.3354,1.3342,1.3354,1.3345,1.3343,1.3353,1.3345,1.3352,1.3344,1.3353,1.3354,1.3342,1.3347,1.3336,1.334,1.3334,1.3352,1.3346,1.3353,1.3352,1.3369,1.3367,1.3424,1.3431,1.3374,1.3375,1.3375,0,1.338,1.3389,1.338,1.3383,1.3381,1.3386,1.3387,1.3373,1.3375,1.3372,1.3379,1.3383,1.3385,1.3394,1.3386,1.3389,1.3383,1.3403,1.3384,1.3388,1.3385,1.3385,1.3386,1.3407,1.3408,1.3408,1.3409,0,1.3427,1.3421,1.3423,1.3424,1.3427,1.3427,1.3426,1.3429,1.3414,1.3417,1.3422,1.3424,1.3427,1.3431,1.3432,1.3429,1.3417,1.3415,1.3419,1.3424,1.3428,1.3427,1.3365,1.3414,1.3413,1.3413,1.3413,1.3412,1.3463,1.3471,1.3466,1.347,1.3467,1.3467,1.3473,1.3466,1.3469,1.3471,1.3462,1.3469,1.3465,1.3465,1.3464,1.3469,1.3461,1.3466,1.3468,1.347,1.3473,1.3426,1.3469,1.3469,1.3469,1.3469,1.3469,0,1.3511,1.3507,1.351,1.3509,1.3512,1.3499,1.3497,1.3501,1.3507,1.3505,1.3507,1.3513,1.3517,1.3509,1.3512,1.3518,1.3512,1.3519,1.3519,1.3519,1.348,1.3477,1.3524,1.3524,1.3523,1.3523,1.3523,1.3523,1.3536,1.3548,1.3541,1.3552,1.3547,1.3554,1.3554,1.3553,1.3551,1.3559,1.3562,1.3556,1.3552,1.3554,1.3557,1.3555,1.3557,1.3566,1.3562,1.3527,1.3521,1.3516,1.3513,1.3567,1.3567,1.36,1.3601,1.3601]}]]